Regional Weather Roundup
Issued by NWS Goodland, KS

Home | Current Version | Previous Version | Graphics & Text | Print | Product List | Glossary On
Versions: 1 2 3 4 5 6 7 8 9 10 11 12 13 14 15 16 17 18 19 20 21 22 23 24 25 26 27 28 29 30 31 32 33 34 35 36 37 38 39 40 41 42 43 44 45 46 47 48 49 50
000
ASUS43 KGLD 090508
RWRGLD

GOODLAND FORECAST AREA HOURLY WEATHER ROUNDUP
NATIONAL WEATHER SERVICE GOODLAND KS
1000 PM MST MON FEB 08 2016

...OFFICIAL OBSERVATIONS...

CITY           SKY/WX    TMP DP  RH WIND       PRES   REMARKS
GOODLAND KS    CLOUDY    25  21  85 W6        30.25F
HILL CITY KS   MOCLDY    29  20  69 W8        30.24F
IMPERIAL NEB   PTCLDY    28  21  75 W7        30.24F
MCCOOK NEB     CLOUDY    32  22  66 W9        30.24S
AKRON CO       CLOUDY    35  26  69 NW16      30.27F
BURLINGTON CO  CLOUDY    29  22  75 W12       30.26F WCI  19
LIMON CO       CLOUDY    30  22  72 W9        30.33S
$$

...UNOFFICIAL OBSERVATIONS...

CITY           SKY/WX    TMP DP  RH WIND       PRES   REMARKS
COLBY KS       CLEAR     25  21  86 NW9       30.27R
GOVE KS          N/A     29  32 100 MISG        N/A
LENORA KS        N/A     33  32  96 MISG        N/A
NORTON KS      CLOUDY    34  19  55 W13       30.22S
SHARON SPRINGS   N/A     30  26  83 W9          N/A
KIT CARSON CO    N/A     31  25  79 MISG        N/A
YUMA CO          N/A     34  28  79 NW13        N/A
$$



USA.gov is the U.S. government's official web portal to all federal, state and local government web resources and services.